Location: Lake Sonoma
(38.7200°N, 123.0564°W)
Time: 13:05:56
(UTC-08:00)

ISS - All Passes

Search period start: 31 January 2015 00:00
Search period end: 10 February 2015 00:00
Orbit: 400 x 408 km, 51.6° (Epoch: 31 January)

Date Brightness Start Highest point End Pass type
(mag) Time Alt. Az. Time Alt. Az. Time Alt. Az.
31 Jan - 02:13:12 10° NNW 02:15:11 15° NNE 02:17:11 10° ENE night (unlit)
31 Jan - 03:48:51 10° NW 03:52:09 74° NE 03:55:26 10° SE night (unlit)
31 Jan - 05:27:35 10° WSW 05:28:15 10° SW 05:28:45 10° SW visible
31 Jan - 20:27:39 10° SSW 20:30:47 46° SE 20:33:57 10° ENE night (unlit)
31 Jan - 22:04:45 10° W 22:07:25 22° NNW 22:10:05 10° NNE night (unlit)
01 Feb - 01:21:24 10° N 01:22:34 11° NNE 01:23:47 10° NE night (unlit)
01 Feb - 02:56:40 10° NW 02:59:47 39° NNE 03:02:54 10° ESE night (unlit)
01 Feb - 04:33:33 10° W 04:36:07 21° SW 04:38:37 10° S night (unlit)
01 Feb - 19:35:59 10° S 19:38:35 23° SE 19:41:15 10° ENE visible
01 Feb - 21:11:54 10° W 21:14:56 35° NNW 21:18:01 10° NE night (unlit)
01 Feb - 22:51:11 10° NNW 22:52:12 11° NNW 22:53:11 10° N night (unlit)
02 Feb - 02:04:34 10° NNW 02:07:19 24° NNE 02:10:05 10° E night (unlit)
02 Feb - 03:40:47 10° WNW 03:43:55 41° SW 03:47:01 10° SSE night (unlit)
02 Feb - 18:45:19 10° SSE 18:46:25 11° SE 18:47:39 10° ESE visible
02 Feb - 20:19:17 10° WSW 20:22:32 66° NW 20:25:48 10° NE visible
02 Feb - 21:57:40 10° NW 21:59:32 14° NNW 22:01:23 10° NNE night (unlit)
03 Feb - 01:12:33 10° NNW 01:14:45 17° NNE 01:16:59 10° ENE night (unlit)
03 Feb - 02:48:19 10° NW 02:51:37 87° SW 02:54:55 10° SE night (unlit)
03 Feb - 19:26:58 10° SW 19:30:11 60° SE 19:33:25 10° ENE visible
03 Feb - 21:04:25 10° WNW 21:06:55 19° NNW 21:09:23 10° NNE night (unlit)
04 Feb - 00:20:37 10° N 00:22:05 12° NNE 00:23:36 10° NE night (unlit)
04 Feb - 01:56:01 10° NW 01:59:13 47° NE 02:02:25 10° ESE night (unlit)
04 Feb - 03:33:16 10° W 03:35:27 16° SW 03:37:34 10° S night (unlit)
04 Feb - 18:35:02 10° SSW 18:37:53 28° SE 18:40:46 10° ENE visible
04 Feb - 20:11:24 10° W 20:14:19 29° NNW 20:17:16 10° NNE visible
04 Feb - 21:51:06 10° NNW 21:51:39 10° N 21:52:10 10° N night (unlit)
04 Feb - 23:29:09 10° N 23:29:20 10° N 23:29:35 10° NNE night (unlit)
05 Feb - 01:03:48 10° NNW 01:06:42 28° NNE 01:09:36 10° E night (unlit)
05 Feb - 02:40:12 10° WNW 02:43:11 32° SW 02:46:09 10° SSE night (unlit)
05 Feb - 17:43:47 10° SSE 17:45:37 15° SE 17:47:33 10° E daylight
05 Feb - 19:18:36 10° WSW 19:21:48 52° NW 19:25:01 10° NE visible
05 Feb - 20:57:17 10° NW 20:58:53 13° NNW 21:00:27 10° NNE visible
06 Feb - 00:11:40 10° NNW 00:14:04 18° NNE 00:16:29 10° ENE night (unlit)
06 Feb - 01:47:34 10° NW 01:50:50 68° SW 01:54:06 10° SE night (unlit)
06 Feb - 18:26:05 10° SW 18:29:20 78° SE 18:32:37 10° NE visible
06 Feb - 20:03:52 10° WNW 20:06:09 17° NNW 20:08:25 10° NNE visible
06 Feb - 23:19:37 10° NNW 23:21:20 13° NNE 23:23:06 10° NE night (unlit)
07 Feb - 00:55:07 10° NW 00:58:23 59° NE 01:01:38 10° ESE night (unlit)
07 Feb - 02:32:52 10° W 02:34:32 13° SW 02:36:05 10° SSW night (unlit)
07 Feb - 17:33:55 10° SSW 17:36:56 36° SE 17:39:59 10° ENE daylight
07 Feb - 19:10:40 10° W 19:13:28 25° NNW 19:16:15 10° NNE visible
07 Feb - 22:27:45 10° N 22:28:32 11° NNE 22:29:21 10° NNE night (unlit)
08 Feb - 00:02:48 10° NW 00:05:48 32° NNE 00:08:49 10° E night (unlit)
08 Feb - 01:39:25 10° WNW 01:42:12 25° SW 01:44:58 10° S night (unlit)
08 Feb - 16:42:17 10° S 16:44:34 18° SE 16:46:55 10° E daylight
08 Feb - 18:17:42 10° WSW 18:20:49 42° NNW 18:23:58 10° NE visible
08 Feb - 19:56:41 10° NW 19:58:00 12° NNW 19:59:15 10° N visible
08 Feb - 23:10:33 10° NNW 23:13:07 21° NNE 23:15:43 10° ENE night (unlit)
09 Feb - 00:46:35 10° WNW 00:49:47 52° SW 00:52:59 10° SE night (unlit)
09 Feb - 17:25:01 10° SW 17:28:15 83° NW 17:31:32 10° NE daylight
09 Feb - 19:03:05 10° WNW 19:05:09 15° NNW 19:07:12 10° NNE visible
09 Feb - 22:18:23 10° NNW 22:20:20 15° NNE 22:22:20 10° ENE night (unlit)
